[Iaude] MPEC M103: 2024 MY [a=1.41,e=0.15,i=16.2,H=22.6]

mpec at cfa.harvard.edu mpec at cfa.harvard.edu
Fri Jun 28 06:16:49 EDT 2024


M.P.E.C. 2024-M103                                Issued 2024 June 28, 10:15 UT

     The Minor Planet Electronic Circulars contain information on unusual
         minor planets, routine data on comets and natural satellites,
         and occasional editorial announcements.  They are published
    on behalf of Division F of the International Astronomical Union by the
          Minor Planet Center, Smithsonian Astrophysical Observatory,
                          Cambridge, MA 02138, U.S.A.
			  
             Prepared using the Tamkin Foundation Computer Network

                              MPC at CFA.HARVARD.EDU
            URL https://www.minorplanetcenter.net/    ISSN 1523-6714

                                    2024 MY                                     


Observations:
     K24M00Y* C2024 06 26.33057216 26 55.950-10 18 33.70         21.98wXEM103F51
     K24M00Y  C2024 06 26.33986216 26 55.310-10 18 11.58         21.99wXEM103F51
     K24M00Y  C2024 06 26.34892216 26 54.661-10 17 50.28         21.84wXEM103F51
     K24M00Y  C2024 06 26.35799416 26 54.023-10 17 28.79         21.71wXEM103F51
     K24M00Y KC2024 06 27.15210516 26 06.85 -09 46 33.4          22.0 GVEM103H21
     K24M00Y KC2024 06 27.15499716 26 06.65 -09 46 26.7          21.9 GVEM103H21
     K24M00Y KC2024 06 27.15788716 26 06.47 -09 46 20.2          21.8 GVEM103H21
     K24M00Y  C2024 06 27.34852116 25 55.434-09 38 51.12         22.65GVEM103F52
     K24M00Y  C2024 06 27.34934816 25 55.377-09 38 49.54         22.65GVEM103F52
     K24M00Y KC2024 06 28.25255 16 25 04.63 -09 04 15.1                VEM103291
     K24M00Y KC2024 06 28.25928 16 25 04.26 -09 04 02.6                VEM103291
     K24M00Y KC2024 06 28.26600 16 25 03.80 -09 03 45.1                VEM103291

Observer details:
291 LPL/Spacewatch II.  Observer R. A. Mastaler.  1.8-m f/2.7 reflector + CCD.
F51 Pan-STARRS 1, Haleakala.  Observers J. Herman, T. Lowe, P. Minguez, A.
    Schultz, I. Smith.  Measurers K. Chambers, T. de Boer, J. Fairlamb, H.
    Gao, M. Huber, C.-C. Lin, E. Magnier, Y. Ramanjooloo, R. Wainscoat, R.
    Weryk.  1.8-m Ritchey-Chretien + CCD.
F52 Pan-STARRS 2, Haleakala.  Observers J. Herman, T. Lowe, P. Minguez, A.
    Schultz, I. Smith.  Measurers K. Chambers, T. de Boer, J. Fairlamb, H.
    Gao, M. Huber, C.-C. Lin, E. Magnier, Y. Ramanjooloo, R. Wainscoat, R.
    Weryk.  1.8-m Ritchey-Chretien + CCD.
H21 Astronomical Research Observatory, Westfield.  Observer R. Holmes.
    Measurers T. Linder, R. Holmes, L. Horn.  1.3-m f/4.0 astrograph + CCD.

Orbital elements:
2024 MY                                                  Earth MOID = 0.3127 AU
Epoch 2024 Mar. 31.0 TT = JDT 2460400.5                 MPC                     
M 247.13610              (2000.0)            P               Q                  
n   0.58600188     Peri.   88.56713     +0.93050571     +0.24448301             
a   1.4142843      Node   257.22408     -0.32831747     +0.88683489             
e   0.1468034      Incl.   16.24015     +0.16237843     +0.39211214             
P   1.68           H   22.69          G   0.15           U   9                  
Residuals in seconds of arc
240626 F51  0.1-  0.1-    240627 H21  0.1-  0.1+    240627 F52  0.2-  0.4-
240626 F51  0.2+  0.1+    240627 H21  0.2-  0.1+    240628 291  0.1+  0.4+
240626 F51  0.0   0.0     240627 H21  0.0   0.1-    240628 291 (0.8+  2.4-)
240626 F51  0.1+  0.1+    240627 F52  0.2-  0.0     240628 291  0.3+  0.3-

Ephemeris:
2024 MY                  a,e,i = 1.41, 0.15, 16                  q = 1.2067
Date    TT    R. A. (2000) Decl.     Delta      r    Elong.  Phase     V
2024 05 29    17 09 23.2 -29 29 02   0.3960  1.4023   167.1     9.3    22.0
...
2024 06 13    16 44 49.9 -19 40 00   0.3587  1.3701   169.8     7.5    21.7
...
2024 06 21    16 33 06.9 -13 56 17   0.3570  1.3531   157.6    16.6    22.0
...
2024 06 27    16 26 15.7 -09 52 12   0.3630  1.3404   148.8    23.1    22.2
2024 06 28    16 25 18.7 -09 13 39   0.3646  1.3383   147.4    24.1    22.3
2024 06 29    16 24 25.3 -08 35 50   0.3663  1.3362   146.1    25.1    22.3
...
2024 07 05    16 20 21.1 -05 05 53   0.3791  1.3239   138.3    30.7    22.5
...
2024 07 13    16 18 25.7 -01 15 07   0.4019  1.3078   129.1    37.1    22.8
...
2024 07 28    16 24 47.4 +03 36 07   0.4541  1.2795   115.7    45.7    23.2

A. U. Tomatic                (C) Copyright 2024 MPC           M.P.E.C. 2024-M103





More information about the Iaude mailing list